Flag for Brazil Weather past 2 weeks in Rio de Janeiro, Rio de Janeiro, Brazil

Now
66 °F

Passing clouds.


Feels Like: 66 °F
Forecast: 61 / 75 °F
Wind: 8 mph from North

Location: Rio De Janeiro Airport

Current Time: Jul 30, 2014 at 11:00:24 AM

Latest Report: Jul 30, 2014 at 10:00 AM


Visibility: N/A

Pressure: 30.36 "Hg

Humidity: 83%

Dew point: 61 °F

Location of Rio de JaneiroLocation

Historic Weather in Rio de Janeiro — Graph

°F

Rio de Janeiro temperature yesterday

Maximum temperature yesterday: 72 °F (at 10:00 AM)
Minimum temperature yesterday: 66 °F (at 6:00 AM)
Average temperature yesterday: 69 °F

Past Weeks' High & Low Weather Summary

 TemperatureHumidityPressure
High88 °F (Jul 18, 12:00 PM)100% (Jul 27, 2:00 PM)30.42 "Hg (Jul 27, 2:00 PM)
Low63 °F (Jul 30, 7:00 AM)37% (Jul 24, 1:00 PM)29.86 "Hg (Jul 24, 4:00 PM)
Average71 °F73%30.17 "Hg
* Reported Jul 15 10:00 AM — Jul 30 10:00 AM, Rio de Janeiro, Weather by CustomWeather, © 2014

Note: Actual official high and low records may vary slightly from our data, if they occured in-between our weather recording intervals... More about our weather records

Advertising

Rio de Janeiro weather history for previous 24 hours

 ConditionsComfort  
Time TempWeatherWind HumidityBarometerVisibility
10:00 AM
Jul 30
66 °FPassing clouds.8 mph83%30.36 "HgN/A
9:00 AM66 °FSunny.7 mph88%30.36 "Hg10 mi
8:00 AM64 °FSunny.3 mph88%30.36 "Hg10 mi
7:00 AM63 °FPassing clouds.3 mph88%30.33 "HgN/A
6:00 AM64 °FSunny.5 mph88%30.33 "Hg10 mi
11:00 PM
Jul 29
66 °FPassing clouds.2 mph83%30.39 "HgN/A
10:00 PM66 °FPassing clouds.1 mph78%30.39 "HgN/A
9:00 PM66 °FPassing clouds.3 mph83%30.39 "HgN/A
8:00 PM68 °FPassing clouds.8 mph78%30.39 "HgN/A
7:00 PM68 °FPartly cloudy.6 mph73%30.36 "HgN/A
6:00 PM70 °FPartly cloudy.7 mph69%30.36 "HgN/A
5:00 PM70 °FPartly cloudy.9 mph69%30.36 "HgN/A
3:00 PM70 °FPartly sunny.12 mph69%30.36 "HgN/A
2:00 PM70 °FOvercast.12 mph73%30.36 "HgN/A
1:00 PM70 °FPartly sunny.9 mph69%30.39 "HgN/A
12:00 PM70 °FPartly sunny.13 mph73%30.42 "HgN/A
11:00 AM72 °FPartly sunny.No wind65%30.42 "HgN/A
Weather by CustomWeather, © 2014

See weather overviewHow to use our weather pages